Starlink 30071

operational
NORAD ID: 56708 Int'l Des: 2023-067 Owner: SPXS Country: US Constellation: starlink
LEOCIRCULAR

About Starlink 30071

Description loading...

Live Position

Loading 3D Globe...

Upcoming Passes

Altitude History

Altitude vs Time

uPlot chart will show altitude changes over time

Two-Line Element Set

1 56708U 23067W 25258.39436559 .00001124 00000-0 98248-4 0 9993
2 56708 43.0029 146.7441 0001242 269.2056 90.8644 15.02539561129293
Epoch: Sep 15, 2025 • Age: 22 hours

Current Status

Altitude 569.6 km
Velocity 7.58 km/s
Sub-Earth Point -38.01°S, 86.54°W
Launch Date May 19, 2023
Age 2.3 years
Type internet

Technical Details

Classification Payload
Mass 730.00 kg
Dry Mass 700.00 kg
Total Mass 730.00 kg
Length 0.30 m
Diameter 4.10 m
Span 29.00 m
Shape Box + pan
Manufacturer SPXS
Bus Type Starlink V2M
Phase Status In Orbit
Owner/State SPXS/US

Large Constellations

Loading constellations...